[Date Prev][Date Next][Thread Prev][Thread Next][Date Index][Thread Index]

[jamsat-news:1757] jas2info #297



========================   最新情報   ==============================

        Last updated  16Nov2002  18:00(JST)   #297

====================================================================
   
1)アマチュア通信衛星情報、FOシリーズの軌道要素、テレメトリ、QSOの
   状況等をまとめてみました.
   
 FO−29の2002年11月16日(土)の17:18(JST)のパスでは
JARLのホームページにあるとうりアナログ運用でした。 今日までの観測した
テレメトリーと最終行の分析結果を報告しておきます。

AS30858C  16Nov2002
17:18-18:33(JST)
AOS   MEL  LOS  Elev
  5   287  208  50.1
Freq. 435.806-.787Hz
(JAS-2 No.111 A 740-1570)

HI HI AE 07 88 55 00 D4 90 B7 09 1A 84 65 73 4C 8A 87 94 75 9D 9E 9E 9C 96
HI HI AE 07 88 55 00 D4 90 B7 09 1A 77 5A 6F 51 8A 87 94 82 9E 9E 9F 9C 97 
HI HI AE 07 88 55 00 D4 90 B7 09 1A 68 52 6D 50 8A 87 94 7A 9E 9F 9F 9C 97 
HI HI AE 07 88 55 00 D4 90 B7 09 1A 58 4C 71 4E 8A 87 94 67 9E 9F 9F 9C 97 
HI HI AE 07 88 55 00 D4 90 B7 09 1A 4A 4A 76 4B 8B 88 94 7B 9E 9F 9F 9C 97 
HI HI AE 07 88 55 00 D4 90 B7 09 1A 3D 4A 77 4D 8B 88 95 73 9E 9F 9F 9C 97 
HI HI AE 07 88 55 00 D4 90 B7 09 1A 34 4C 77 4C 8C 88 95 63 9E 9F 9F 9C 97 
HI HI AE 07 88 55 00 D4 90 B7 09 1A 2E 50 75 4D 8B 88 95 78 9E 9F 9E 9C 97 
HI HI AE 07 88 55 00 D4 90 B7 09 14 2D 55 72 4E 8B 88 95 78 9E 9F 9E 9C 97 
HI HI AE 07 88 55 00 D4 E6 A0 09 14 2C 59 73 4D 8B 89 95 94 9F 9F 9E 9C 97 
HI HI AE 07 88 55 00 D4 E6 A0 09 14 31 5C 78 4B 8C 89 96 7C 9F 9F 9E 9D 97 
HI HI AE 07 88 55 00 D4 E6 A0 09 14 37 5F 79 4B 8D 8A 97 76 9F 9F 9E 9D 97 
HI HI AE 07 88 55 00 D4 E6 A0 09 14 45 5C 7A 4A 8D 8A 97 85 9F 9F 9E 9D 97
HI HI AE 07 88 55 00 D4 E6 A0 09 14 45 5E 7B 4A 8D 8B 98 75 9F 9F 9E 9D 97 
HI HI AE 07 88 55 00 D4 E6 A0 09 14 4C 5C 75 4D 8D 8A 97 87 9F 9F 9E 9D 97 
HI HI AE 07 88 55 00 D5 E6 A0 09 14 51 59 6B 52 8C 8A 97 76 9F 9F 9E 9D 97 
HI HI AE 07 88 55 00 D4 E6 A0 09 14 55 55 6C 52 8C 8A 97 81 9F 9F 9E 9D 97 
HI HI AE 07 88 55 00 D4 E6 A0 09 14 56 52 6D 52 8D 8A 97 81 9F 9F 9E 9D 97 
HI HI AE 07 88 55 00 D4 E6 A0 09 14 56 50 6B 51 8D 8B 98 78 9F 9F 9E 9D 97 
HI HI AE 07 88 55 00 D4 E6 A0 09 14 54 4E 68 53 8D 8B 98 77 9F 9F 9E 9D 97

AS30845C  15Nov2002
18:25-18:27(JST)
AOS   MEL  LOS  Elev
350   293  237  15.7
Freq. 435.789-.788Hz
(JAS-2 No.111 A 640-100)

HI HI AE 07 88 55 00 D4 00 00 09 00 35 7D 7D 48 8E 8A 97 9E 9C 9F 9E 9A 95 
HI HI AE 07 88 55 00 D4 00 00 09 00 3C 7C 7E 47 8E 8A 97 7D 9C 9E 9E 9A 95 
 
AS30831C  14Nov2002
17:35-17:38(JST)
AOS   MEL  LOS  Elev
  4   287  210  45.9
Freq. 435.786-.786Hz
(JAS-2 No.111 A 450-640) 

HI HI AE 07 88 55 00 D4 E7 A3 09 6D 5D 56 7D 4A 8E 8B 98 68 9A 9A 9C 9B 94 
HI HI AE 07 88 55 00 D4 E7 A3 09 6D 55 4F 7D 49 8E 8B 99 8A 9A 9A 9C 9B 94 
HI HI AE 07 88 55 00 D4 E7 A3 09 6D 4E 49 7E 48 8F 8C 99 81 9A 9A 9C 9B 94 
HI HI AE 07 88 55 00 D4 E7 A3 09 6D 4A 45 7E 48 8F 8C 99 6D 9A 9A 9C 9B 94 

AS30791C  08Nov2002
18:33-18:35(JST)
AOS   MEL  LOS  Elev
347   295  243  12.7
Freq. 435.788-.787Hz
(JAS-2 No.111 A 300-450)

HI HI AE 07 88 55 00 D4 21 27 09 77 7A 79 7D 4A 8D 89 97 AF 9B  6 9A 9D 93 
HI HI AE 07 88 55 00 D4 21 27 09 77 80 81 7E 4A 8E 8A 97 83 9B 96 9A 9D 93 
HI HI AE 07 88 55 00 D4 21 27 09 77 86 87 7F 4A 8E 8B 98 64 9B 96 9A 9D 93 
HI HI AE 07 88 55 00

------------------------  FO-29の軌道要素 ------------------------------        
 
  ■ 軌道要素1:「jamsat−keps:1256」より         
          SB KEPS @ AMSAT  $ORB02318.N
          2Line Orbital Elements 02318.AMSAT

HR AMSAT ORBITAL ELEMENTS FOR AMATEUR SATELLITES IN NASA FORMAT
FROM WA5QGD FORT WORTH,TX November 14, 2002
SEND SUBSCRIBE/UNSUBSCRIBE TO majordomo@amsat.org ONLY
BID: ORB02318.N

 DECODE 2-LINE ELSETS WITH THE FOLLOWING KEY:
 1 AAAAAU 00  0  0 BBBBB.BBBBBBBB  .CCCCCCCC  00000-0  00000-0 0  DDDZ
 2 AAAAA EEE.EEEE FFF.FFFF GGGGGGG HHH.HHHH III.IIII JJ.JJJJJJJJKKKKKZ
 KEY: A-CATALOGNUM B-EPOCHTIME C-DECAY D-ELSETNUM E-INCLINATION F-RAAN
 G-ECCENTRICITY H-ARGPERIGEE I-MNANOM J-MNMOTION K-ORBITNUM Z-CHECKSUM

FO-29
1 24278U 96046B   02317.95577495  .00000088  00000-0  12267-3 0 05557
2 24278 098.5286 117.3554 0351499 106.9247 257.0732 13.52863407308241

 ■ 軌道要素2:「jamsat−keps:1255」より 
       SB KEPS @ AMSAT  $ORB02318.O
       Orbital Elements  02318.OSCAR

HR AMSAT ORBITAL ELEMENTS FOR OSCAR SATELLITES
FROM WA5QGD FORT WORTH,TX November 14, 2002
SEND SUBSCRIBE/UNSUBSCRIBE TO majordomo@amsat.org ONLY
BID: ORB02318.O
TO ALL RADIO AMATEURS BT

Satellite: FO-29
Catalog number: 24278
Epoch time:      02317.95577495
Element set:    0555
Inclination:      098.5286 deg
RA of node:       117.3554 deg
Eccentricity:    0.0351499
Arg of perigee:   106.9247 deg
Mean anomaly:     257.0732 deg
Mean motion:   13.52863407 rev/day
Decay rate:        8.8e-07 rev/day^2
Epoch rev:           30824
Checksum:              346

-------------------  FO-29(JAS-2)のテレメトリに関する情報  ---------------------- 
 
2)上記2002年11月16日(土)のテレメトリの17:18のパスの最終行を分析して
 おきます。

AS30858C  16Nov2002
17:18-18:33(JST)
AOS   MEL  LOS  Elev
  5   287  208  50.1
Freq. 435.806-.787Hz
(JAS-2 No.111 A 740-1570)

HI HI AE 07 88 55 00 D4 E6 A0 09 14 54 4E 68 53 8D 8B 98 77 9F 9F 9E 9D 97 

テレメトリ   内 容        換算算値 単 位
3C	磁気センサーZ軸=	41176.5	[nT]
3D	磁気センサX軸	=	38235.3	[nT]
4A	太陽電池発生電流=	1019.6	[mA]
4B	B充放電電流	=	-373.2	[mA]
4C	B端子電圧	=	15.2	[V]
4D	B中間端子電圧	=	6.7	[V]
5A	バス電圧	=	14.9	[V]
5B	JTA送信電力	=	675.4	[mW]
5C 	構体温度1	=	20.1	[℃]
5D	構体温度2	=	20.1	[℃]
6A	構体温度3	=	20.5	[℃]
6B	構体温度4	=	20.9	[℃]
6C	Bセル温度	=	23.2	[℃]

 ========================== FO-29(ふじ3号)のテレメトリ分析、QSO情報等 =====================
   
 3)[jamsat-bb:12542]にてJAS-1b(FO-20)運用についてJN1GKZ新井さんのコメントがありましたので
   転載させて頂きました。

 WH6BIE KelyさんがFO-20にQRVされています。27日 13時過ぎのパスで良好
にQSOできました。このパスでは九州まで開けていましたが、QSOしたのは私
だけのようでした。
 毎週末、FO-20の日本とのパスにQRVするとのことでしたので、探してみて
下さい。

JN1GKZ 新井
   jn1gkz@jamsat.or.jp     http://www.ne.jp/asahi/m-arai/gkz/
-------------
JAMSAT BB Mailing List
http://www.jamsat.or.jp/infoserv/mlist.html
 =================================================================================================
 
 4)JARL のホームページに運用予定が記載されていましたのでご紹介します.
       ( http://www.jarl.or.jp/Japanese/3_Fuji/new/uy.htm )
       
        *** 運用予定について ***

        当分の間     アナログ系運用

  * なお,運用予定は都合により,変更することがありますの,であらかじめご了承願います。

 照会先 : lab@jarl.or.jp

 最新の情報はテレホンサービス(03−3942−1000)をお聞きください。  
  
  ふじ2号(JAS−1b)の運用 

 CWテレメトリの機能に障害が発生しています。詳細は「ふじ2号」の現況をご覧ください。
 運用はアナログ系の連続運用とします。 
     
-----------------------    FO−20(JAS-1b)道要素   -------------------------
  
  ■ 軌道要素1 :出典はFO-29「ふじ3号」に同じ.
  
FO-20
1 20480U 90013C   02317.95151252 -.00000031  00000-0  70446-5 0 04514
2 20480 099.0312 293.9296 0539810 222.6662 133.1308 12.83325138598122
 
  ■ 軌道要素2 :出典はFO−29「ふじ3号」に同じ.
               
Satellite: FO-20
Catalog number: 20480
Epoch time:      02317.95151252
Element set:    0451
Inclination:      099.0312 deg
RA of node:       293.9296 deg
Eccentricity:    0.0539810
Arg of perigee:   222.6662 deg
Mean anomaly:     133.1308 deg
Mean motion:   12.83325138 rev/day
Decay rate:       -3.1e-07 rev/day^2
Epoch rev:           59812
Checksum:              281

-------------------------------------------------------------------------------- 
         ■ ふじ2号/FO−20/JAS-1b ■      
            
          「ふじ2号」 現況                                                                                  
             
   JAS-1b(ふじ2号)のCWテレメトリ信号に,1997年10月12日12時(JST)の
 日本上空通過時,3桁の数字が繰り返されるはずが3個の長音の繰り返しとなっているという
 異常が発見されました。この不具合は次の通過時からは回復していましたが13日15時20分の
 通過時に再び観測されました。現在はA0の送信が続いています。衛星のアナログ系中継モード
 動作は異常が無く,正常時のテレメトリ内容からは衛星の動作に異常は認められません。従って,
 直ちに衛星のミッションに影響することは無いと予想されますので,当面はアナログ系中継
 モードを継続します。衛星は既に打ち上げてから7年8ヶ月を経ておりますので,今後は監視を
 強化する予定です。アマチュア各位のレポートをお待ちします。
 -------------------------------------------------------------------------------- 
  1997年10月14日 00時35分 確認のテレメトリ音 151 KB (A0) 
  1997年10月14日 11時10分 確認のテレメトリ音 216 KB (異常キーイング) 

  以上 JARLのホ−ムページの http://www.jarl.or.jp/Japanese/3_Fuji/new/fuji.htm

===================== FO-20 ふじ2号 のテレメトリ観測結果 ====================

  3月8日(金)18:18(JST)の観測結果ではテレメトリは、以前観測した単一周波数の
正弦波がドップラー効果で周波数がずれていくのみの状態でした。
                                         
   =============   JAS-2 (ふじ3号)と現在までの情報   ===========
  
  A.電話によるふじ3号の運用情報
      社団法人日本アマチュア連盟によるサービス
           TEL .   03− 3942 − 1000
  B.アマチュア無線FAXサービス
      JARLによるふじ3号の軌道情報(オービットカレンダー)
         FAX No.  03− 3233 −0055
  C.WWWブラウザで情報を簡単に見れる人のためにJAS-1,JAS‐1b,
   JAS‐2(ふじ1号からふじ3号の衛星としての運用されるまでの名前)の
   概要、打ち上げまでの状況、運用中における状況を説明したホームページを
   紹介しておきます.

     社団法人日本アマチュア無線連盟(JARL)のホームページ

         http://www.jarl.or.jp/Japanese/3_Fuji/new/fuji.htm
     http://www.jarl.or.jp/Japanese/3_Fuji/history/history.htm
 
     宇宙開発事業団(NASDA)ホームページ 

      1)「ふじ1号」(JAS−1:FO−12)
         http://spaceboy.nasda.go.jp/lib/satellites/jas/j/jas_01_j.html
         http://spaceboy.nasda.go.jp/lib/satellites/jas/g/h_15_017.jpg
         http://spaceboy.nasda.go.jp/lib/satellites/jas/e/jas_01_e.html
         http://space.nasda.go.jp/db/kaihatu/eisei/eisei_j/jas_1_a_j.html#2
         http://spaceboy.nasda.go.jp/note/eisei/j/eis15h_j.html#eis15h_01_j
         http://www.nasda.go.jp/lib/nasda-news/1996/12/resai_j.html
         http://spaceboy.nasda.go.jp/lib/satellites/jas/g/h_15_007.jpg
         http://www.nasda.go.jp/press/2002/02/pb_020220_j.html

      2)「ふじ2号」(JAS−1b:FO−20)
         http://spaceboy.nasda.go.jp/lib/satellites/mos/g/h_21_018.jpg
         http://spaceboy.nasda.go.jp/lib/satellites/mos/g/h_21_019.jpg
         http://spaceboy.nasda.go.jp/note/eisei/j/eis15h_j.html#eis15h_01_j

      3)「ふじ3号」(JAS−2:FO−29)
         http://www.nasda.go.jp/lib/nasda-news/1996/09/h2_j.html
         http://www.nasda.go.jp/pr/services/presskit/h2-f4/p-h2_3_e.html
         http://space.nasda.go.jp/db/kaihatu/eisei/eisei_j/jas-2_j.html
         http://spaceboy.nasda.go.jp/note/eisei/j/eis15i_j.html#eis15i_03_j

  D.JAMSATによる軌道情報の活用
        JAMSATのホームページまたはjamsat−kepsの軌道要素より
      衛星の軌道情報を得る.
     JAMSATホームページ
               URL    http://www.jamsat.or.jp
       上記ホームページでは各地で行われるアマチュア通信衛星に関する
      ミューティングのお知らせや世界のアマチュア衛星に関する情報が
      満載されています.

 ========================================================================  
     JAMSATのメンバーのご協力によりJH6MME(高山 秀造)が
    執筆・編集を担当しております.ご指摘の意見、疑問やこのようにしたら
    というアイデアがありましたら小さなことでもかまいませんので気軽に下
    記アドレスまでご連絡ください.jamsat−newsからjas2
    infoへの転載をJH4PHW局坂井さんに担当して頂いております.  
                  E-mail : jh6mme@jamsat.or.jp : jh4phw@jamsat.or.jp
 ===============================   END  ===============================